Regional Weather Roundup
Issued by NWS

Home | Current Version | Previous Version | Graphics & Text | Print | Product List | Glossary On
Versions: 1 2 3 4 5 6 7 8 9 10 11 12 13 14 15 16 17 18 19 20 21 22 23 24 25 26 27 28 29 30 31 32 33 34 35 36 37 38 39 40 41 42 43 44 45 46 47 48 49 50
000
ASUS43 KMKX 031000
RWRWI

WISCONSIN REGIONAL WEATHER ROUNDUP
NATIONAL WEATHER SERVICE MILWAUKEE/SULLIVAN WI
500 AM CDT MON AUG 03 2015

NOTE: "FAIR" INDICATES FEW OR NO CLOUDS BELOW 12,000 FEET WITH NO
SIGNIFICANT WEATHER AND/OR OBSTRUCTIONS TO VISIBILITY.

WIZ001-002-006>008-014>016-023>028-031100-
NORTHWEST WISCONSIN

CITY           SKY/WX    TMP DP  RH WIND       PRES   REMARKS
SUPERIOR ARPT  CLEAR     51  47  86 S8        29.78S
ASHLAND        MOCLDY    56  49  77 SW6       29.77S
HAYWARD        CLEAR     50  47  89 CALM      29.82R
SIREN          CLEAR     56  48  74 W6        29.83F
CUMBERLAND     CLEAR     52  46  82 W3        29.84S
RICE LAKE      CLEAR     51  47  85 CALM      29.85S
CHETEK         CLEAR     58  49  72 W5        29.84R
LADYSMITH      CLEAR     56  50  80 W6        29.83S
EAU CLAIRE     NOT AVBL
MENOMONIE      CLEAR     58  51  76 W6        29.85R
NEW RICHMOND   CLEAR     53  49  85 CALM      29.86S
OSCEOLA        PTCLDY    52  52 100 CALM      29.88S
$$

WIZ003>005-009-010-017-018-031100-
NORTH CENTRAL WISCONSIN

CITY           SKY/WX    TMP DP  RH WIND       PRES   REMARKS
MANITOWISH WTR CLOUDY    54  51  88 W3        29.77S
ARBOR VITAE    CLOUDY    57  52  85 CALM      29.77S
WOODRUFF       CLOUDY    57  52  85 CALM      29.77S
RHINELANDER    CLOUDY    54  51  90 W5        29.78S
EAGLE RIVER    CLOUDY    57  49  74 W5        29.76S
LAND O LAKES   CLOUDY    59  47  64 NW5       29.77S
PHILLIPS       CLEAR     52  49  91 W3        29.79S
TOMAHAWK       PTCLDY    50  48  93 CALM      29.79S
MEDFORD        CLEAR     52  49  90 W5        29.81R
MERRILL        NOT AVBL
$$

WIZ029-030-035-036-043>047-031100-
CENTRAL WISCONSIN

CITY           SKY/WX    TMP DP  RH WIND       PRES   REMARKS
WAUSAU         CLEAR     57  51  80 NW5       29.78R
MOSINEE        CLEAR     55  50  82 NW7       29.80S
MARSHFIELD     CLEAR     55  48  77 W7        29.81S
STEVENS POINT  CLEAR     57  51  81 W3        29.81R
WAUPACA        CLEAR     61  55  79 W5        29.78S
WAUTOMA        NOT AVBL
WISC RAPIDS    CLEAR     57  50  77 W6        29.82R
CAMP DOUGLAS   NOT AVBL
$$

WIZ011>013-019>022-031-037>040-048>050-031100-
NORTHEAST WISCONSIN

CITY           SKY/WX    TMP DP  RH WIND       PRES   REMARKS
ANTIGO         CLEAR     51  49  93 CALM      29.79R
SHAWANO        MOCLDY    59  55  85 W6        29.76S
OCONTO         CLEAR     56  56 100 W5        29.73S
STURGEON BAY   CLEAR     61  54  77 W7        29.76R
GREEN BAY      CLEAR     58  56  93 W8        29.76R
MANITOWOC      NOT AVBL
APPLETON       CLEAR     55  54  94 W8        29.78S
CLINTONVILLE   CLEAR     55  52  88 CALM      29.78R
OSHKOSH        CLEAR     60  55  83 W7        29.78R
$$

WIZ032>034-041-042-053>061-031100-
SOUTHWEST WISCONSIN

CITY           SKY/WX    TMP DP  RH WIND       PRES   REMARKS
LA CROSSE      CLEAR     60  53  77 CALM      29.84S
SPARTA         CLEAR     51  48  92 CALM      29.85R
VIROQUA        CLEAR     57  50  78 W5        29.86S
BOSCOBEL       CLEAR     57  55  93 CALM      29.86R
PRAIRIE DU CHI CLEAR     62  57  83 CALM      29.86R
PLATTEVILLE    CLEAR     64  57  77 N3        29.86R
$$

WIZ056-057-062-063-064-067-068-031100-
SOUTH CENTRAL WISCONSIN

CITY           SKY/WX    TMP DP  RH WIND       PRES   REMARKS
REEDSBURG      CLEAR     61  53  73 W5        29.83R
BARABOO/DELLS  CLEAR     62  50  66 NW3       29.83R
LONE ROCK      NOT AVBL
MINERAL POINT  CLEAR     63  55  77 N5        29.86R
MADISON        CLEAR     65  57  75 NW6       29.82R
MIDDLETON      CLEAR     62  57  84 NW3       29.83R
WATERTOWN      CLEAR     60  59  98 SW3       29.79R
MONROE         MOCLDY    64  59  82 NW6       29.82S
JANESVILLE     PTCLDY    63  61  94 NW5       29.79R
$$

WIZ051-052-058>065-066-070>072-031100-
SOUTHEAST WISCONSIN

CITY           SKY/WX    TMP DP  RH WIND       PRES   REMARKS
MILWAUKEE      PTCLDY    66  59  78 NW5       29.77R
WAUKESHA       CLEAR     63  57  82 NW8       29.79R
MILWAUKEE/TIMM FAIR      63  55  77 NW8       29.77S
RACINE         CLEAR     64  60  87 W6        29.79R
BURLINGTON     CLEAR     60  58  94 NW7       29.78R
KENOSHA        MOCLDY    63  61  93 W5        29.78R
FOND DU LAC    PTCLDY    61  56  83 NW9       29.78R
SHEBOYGAN      CLEAR     62  59  90 W7        29.76R
WEST BEND      CLEAR     61  55  82 NW3       29.78R
JUNEAU         CLEAR     61  55  80 NW3       29.80R
$$

LSZ147-162-031100-
LAKE SUPERIOR

STATION/POSITION TIME  TEMP    WIND        PRES    WAVE
                       AIR SEA DIR/SP/G            HT/PER
                 (UTC) (F)     (DEG/KT/KT) (MB)    (FT/S)
W MID LAKE BUOY  0850   58 55  260/ 12/ 14 1005.9F   1/ 3
DEVILS ISLAND    0900   63     250/ 14/ 18 1006.8F
PORT WING        0940   59     210/  6/ 12 1008.1S
SAXON HARBOR     0940   60                 1007.1S
$$

LMZ867-665-643>646-031100-
LAKE MICHIGAN

STATION/POSITION TIME  TEMP    WIND        PRES    WAVE
                       AIR SEA DIR/SP/G            HT/PER
                 (UTC) (F)     (DEG/KT/KT) (MB)    (FT/S)
CHAMBERS ISLAND  0900   61     280/  5/ 13 1006.1S
S GREEN BAY BUOY 0900   62 63  280/ 10/ 14 1008.0F
N MID LAKE BUOY  0850   65 68  290/ 14/ 16 1004.5R   2/ 6
NORTHPORT PIER   0900   64     290/  9/ 12 1005.8S
ALGOMA LAKESHORE 0912           CALM  /  4   N/A
KEWAUNEE LAKESHO 0900   62     290/  5/  7 1006.2R
SHEBOYGAN LAKESH 0900   65     290/ 12/ 15 1007.2R
PORT WASHINGTON  0900   66     310/  6/  9 1008.1R
ATWATER BUOY     0900   62 60  350/  2/  4 1009.0R
MILWAUKEE LAKESH 0900   67     310/  4/  5   N/A
KENOSHA   LAKESH 0900   68     270/  7/  8 1007.5R
$$

TC  - TEMPERATURE IN CELSIUS
VSB - VISIBILITY IN STATUTE MILES
WCI - WIND CHILL INDEX
HX  - HEAT INDEX




USA.gov is the U.S. government's official web portal to all federal, state and local government web resources and services.